Location: Caucaguita
(10.3578°N, 66.8025°W)
Time: 03:01:34
(UTC+00:00)

Delta 2 Rocket - Pass Details

Date: 18 November 2025
Orbit: 356 x 508 km, 35.6° (Epoch: 09 December)

Event Time Altitude Azimuth Distance (km) Brightness Sun altitude
Rises 23:31:22 0° 298° (WNW) 2,625 7.5 -21.9°
Reaches altitude 10° 23:33:40 10° 292° (WNW) 1,735 6.5 -22.4°
Maximum altitude 23:37:32 47° 218° (SW) 681 4.0 -23.3°
Enters shadow 23:38:27 38° 178° (S) 776 4.1 -23.5°
